G1SCQ Weather Reports


time (UTC)temp
F
wind
direction
speed
knots
gust
knots
rain 1hr
in
rain 24hr
in
rain mn
in
humidity
%
barometer
mb
20260510163605 52 70 0.9 5.2 0.00 0.00 0.00 58 1016.7
20260510162705 52 71 0.9 2.6 0.00 0.00 0.00 59 1016.9
20260510161805 51 57 0.9 3.5 0.00 0.00 0.00 58 1017.1
20260510160905 52 80 0.0 2.6 0.00 0.00 0.00 59 1017.2
20260510160005 51 83 0.9 5.2 0.00 0.00 0.00 60 1017.3
20260510155405 53 51 1.7 7.0 0.00 0.00 0.00 57 1017.3
20260510154505 53 40 0.9 6.1 0.00 0.00 0.00 57 1017.6
20260510153605 51 37 0.9 3.5 0.00 0.00 0.00 63 1017.7
20260510152705 50 55 0.9 7.0 0.00 0.00 0.00 65 1017.9
20260510151805 51 49 0.9 5.2 0.00 0.00 0.00 63 1017.8
20260510150905 51 80 0.9 2.6 0.00 0.00 0.00 62 1018.0
20260510150005 53 100 0.9 3.5 0.00 0.00 0.00 59 1017.9
20260510145405 52 74 0.9 5.2 0.00 0.00 0.00 60 1018.0
20260510144505 52 59 0.9 5.2 0.00 0.00 0.00 63 1018.0
20260510143605 50 80 0.9 5.2 0.00 0.00 0.00 65 1018.0
20260510142705 51 75 0.9 8.7 0.00 0.00 0.00 64 1018.1
20260510141805 52 73 0.9 5.2 0.00 0.00 0.00 60 1018.1
20260510140905 52 71 0.9 6.1 0.00 0.00 0.00 62 1018.2
20260510140005 52 86 0.9 6.1 0.00 0.00 0.00 62 1018.4
20260510135405 53 73 0.9 5.2 0.00 0.00 0.00 62 1018.2
20260510134505 51 82 0.9 5.2 0.00 0.00 0.00 66 1018.2
20260510133605 52 48 0.9 7.0 0.00 0.00 0.00 63 1018.4
20260510132705 51 39 1.7 3.5 0.00 0.00 0.00 66 1018.5
20260510131805 52 46 1.7 5.2 0.00 0.00 0.00 67 1018.5
20260510130905 52 51 1.7 5.2 0.00 0.00 0.00 67 1018.6
20260510130005 52 31 0.9 5.2 0.00 0.00 0.00 67 1018.8
20260510125405 52 60 0.9 7.0 0.00 0.00 0.00 66 1018.7
20260510124505 51 93 0.9 3.5 0.00 0.00 0.00 68 1018.9
20260510123604 52 56 0.9 7.0 0.00 0.00 0.00 67 1018.7
20260510122704 52 81 1.7 9.6 0.00 0.00 0.00 69 1018.8
20260510121804 51 93 0.9 5.2 0.00 0.00 0.00 70 1019.0
20260510120904 51 69 0.9 3.5 0.00 0.00 0.00 70 1019.1
20260510120005 52 94 0.9 7.0 0.00 0.00 0.00 68 1019.3
20260510115408 51 85 0.9 8.7 0.00 0.00 0.00 67 1019.2
20260510114505 54 90 1.7 7.8 0.00 0.00 0.00 64 1019.1
20260510113605 54 74 0.9 7.8 0.00 0.00 0.00 65 1019.2
20260510112705 53 62 1.7 7.0 0.00 0.00 0.00 65 1019.4
20260510111804 53 85 0.9 6.1 0.00 0.00 0.00 66 1019.4
20260510110904 53 1 0.9 7.0 0.00 0.00 0.00 66 1019.7
20260510110005 50 82 0.9 3.5 0.00 0.00 0.00 71 1019.5
20260510105404 51 99 0.9 3.5 0.00 0.00 0.00 70 1019.7
20260510104505 51 80 0.9 3.5 0.00 0.00 0.00 70 1019.8
20260510103604 51 73 0.9 5.2 0.00 0.00 0.00 73 1019.9
20260510102704 51 69 0.9 6.1 0.00 0.00 0.00 71 1019.8
20260510101804 52 89 0.9 7.0 0.00 0.00 0.00 68 1020.0
20260510100904 51 71 1.7 6.1 0.00 0.00 0.00 72 1019.8
20260510100008 52 84 0.9 6.1 0.00 0.00 0.00 70 1019.9
20260510095408 52 96 0.9 3.5 0.00 0.00 0.00 70 1020.2
20260510094504 50 104 0.9 7.0 0.00 0.00 0.00 72 1020.2
20260510093604 49 87 0.9 5.2 0.00 0.00 0.00 74 1020.1
20260510092704 50 50 0.9 5.2 0.00 0.00 0.00 75 1020.2
20260510091804 50 75 0.9 3.5 0.00 0.00 0.00 74 1020.2
20260510090904 50 94 0.9 5.2 0.00 0.00 0.00 74 1020.2
20260510090004 50 74 0.9 7.8 0.00 0.00 0.00 75 1020.3
20260510085404 50 52 0.9 7.8 0.00 0.00 0.00 74 1020.2
20260510084508 50 28 0.9 3.5 0.00 0.00 0.00 77 1020.3
20260510083604 49 59 0.9 3.5 0.00 0.00 0.00 78 1020.2
20260510082704 49 47 0.9 7.8 0.00 0.00 0.00 76 1020.2
20260510081804 48 50 1.7 6.1 0.00 0.00 0.00 78 1020.1
20260510080904 48 64 0.9 5.2 0.00 0.00 0.00 76 1020.1
20260510080004 49 83 0.9 5.2 0.00 0.00 0.00 77 1020.1
20260510075404 49 83 0.9 2.6 0.00 0.00 0.00 75 1020.2
20260510074507 49 63 0.9 6.1 0.00 0.00 0.00 75 1020.2
20260510073604 49 75 0.9 6.1 0.00 0.00 0.00 76 1020.0
20260510072704 48 55 0.9 6.1 0.00 0.00 0.00 75 1020.0
20260510071804 48 79 0.9 5.2 0.00 0.00 0.00 76 1019.9
20260510070904 48 85 0.9 5.2 0.00 0.00 0.00 78 1019.9
20260510070004 48 66 0.9 3.5 0.00 0.00 0.00 80 1019.9
20260510065404 48 57 0.9 3.5 0.00 0.00 0.00 81 1019.7
20260510064504 48 91 0.9 5.2 0.00 0.00 0.00 82 1019.9
20260510063604 47 55 0.9 5.2 0.00 0.00 0.00 84 1019.5
20260510062707 47 81 0.9 5.2 0.00 0.00 0.00 85 1019.7
20260510061807 47 96 0.9 5.2 0.00 0.00 0.00 86 1019.4
20260510060904 47 37 0.9 3.5 0.00 0.00 0.00 87 1019.3
20260510060004 47 47 0.9 6.1 0.00 0.00 0.00 87 1019.7
20260510055404 47 71 0.9 6.1 0.00 0.00 0.00 87 1019.3
20260510054504 47 100 0.9 5.2 0.00 0.00 0.00 87 1019.3
20260510053604 47 22 0.9 6.1 0.00 0.00 0.00 88 1019.5
20260510052704 47 68 0.9 6.1 0.00 0.00 0.00 88 1019.7
20260510051807 47 57 0.9 6.1 0.00 0.00 0.00 88 1019.5
20260510050904 47 67 0.9 5.2 0.00 0.00 0.00 89 1019.5
20260510050004 47 101 0.9 5.2 0.00 0.00 0.00 88 1019.5
20260510045404 47 70 0.9 7.0 0.00 0.00 0.00 89 1019.4
20260510044504 47 67 0.9 6.1 0.00 0.00 0.00 89 1019.2
20260510043604 47 95 0.9 5.2 0.00 0.00 0.00 90 1019.3
20260510042704 48 79 0.9 5.2 0.00 0.00 0.00 90 1019.3
20260510041804 48 71 0.9 5.2 0.00 0.00 0.00 90 1019.3
20260510040904 48 65 0.9 6.1 0.00 0.00 0.00 91 1019.3
20260510040004 48 64 0.9 3.5 0.00 0.00 0.00 90 1019.2
20260510035404 48 62 0.9 5.2 0.00 0.00 0.00 90 1019.3
20260510034507 48 73 0.9 3.5 0.00 0.00 0.00 91 1019.8
20260510033603 48 85 0.9 3.5 0.00 0.00 0.00 90 1019.5
20260510032703 48 75 0.9 3.5 0.00 0.00 0.00 90 1019.7
20260510031804 48 93 0.9 7.8 0.00 0.00 0.00 91 1019.5
20260510030907 48 49 0.9 6.1 0.00 0.00 0.00 91 1019.4
20260510030004 48 98 0.9 6.1 0.00 0.00 0.00 91 1019.8
20260510025404 48 67 0.9 6.1 0.00 0.00 0.00 91 1019.7
20260510024504 48 88 0.9 5.2 0.00 0.00 0.00 91 1019.7
20260510023603 49 68 0.9 5.2 0.00 0.00 0.00 91 1019.7
20260510022703 49 82 0.9 3.5 0.00 0.00 0.00 91 1020.0
20260510021803 49 81 0.9 2.6 0.00 0.00 0.00 92 1019.9
20260510020903 49 69 0.9 2.6 0.00 0.00 0.00 92 1019.9
20260510020004 49 63 0.9 2.6 0.00 0.00 0.00 92 1019.7
20260510015403 49 70 0.9 2.6 0.00 0.00 0.00 92 1019.9
20260510014503 49 97 0.9 5.2 0.00 0.00 0.00 91 1019.8
20260510013603 49 51 0.9 3.5 0.00 0.00 0.00 91 1020.0
20260510012703 49 113 0.9 3.5 0.00 0.00 0.00 91 1020.0
20260510011804 49 74 0.9 3.5 0.00 0.00 0.00 91 1020.0
20260510010904 49 67 0.0 5.2 0.00 0.00 0.00 92 1019.9
20260510010003 49 59 0.0 1.7 0.00 0.00 0.00 92 1020.0
20260510005403 49 63 0.0 2.6 0.00 0.00 0.00 92 1020.0
20260510004507 49 117 0.0 1.7 0.00 0.00 0.00 91 1019.9
20260510003607 49 107 0.9 2.6 0.00 0.00 0.00 91 1019.9
20260510002703 49 87 0.9 1.7 0.00 0.00 0.00 91 1020.1
20260510001803 49 91 0.9 2.6 0.00 0.00 0.00 91 1020.2
20260510000903 49 108 0.0 0.9 0.00 0.00 0.00 91 1020.2
20260510000004 49 81 0.0 6.1 0.00 0.00 0.00 91 1020.4
20260509235403 49 69 0.9 3.5 0.00 0.00 0.00 92 1020.2
20260509234503 49 79 0.9 6.1 0.00 0.00 0.00 92 1020.2
20260509233603 49 78 0.0 2.6 0.00 0.00 0.00 93 1020.5
20260509232707 49 14 0.0 1.7 0.00 0.00 0.00 93 1020.2
20260509231803 48 112 0.0 1.7 0.00 0.00 0.00 93 1020.2
20260509230903 48 109 0.0 1.7 0.00 0.00 0.00 93 1020.2
20260509230004 48 30 0.0 2.6 0.00 0.00 0.00 93 1020.1
20260509225403 48 44 0.0 2.6 0.00 0.00 0.00 94 1020.0
20260509224503 48 14 0.0 0.9 0.00 0.00 0.00 93 1020.1
20260509223603 48 2 0.0 1.7 0.00 0.00 0.00 94 1019.8
20260509222703 48 44 0.0 1.7 0.00 0.00 0.00 93 1019.7
20260509221803 48 38 0.0 1.7 0.00 0.00 0.00 94 1019.7
20260509220903 48 46 0.9 2.6 0.00 0.00 0.00 94 1019.7
20260509220003 48 54 0.0 2.6 0.00 0.00 0.00 94 1019.5
20260509215403 49 170 0.0 2.6 0.00 0.00 0.00 93 1019.5
20260509214503 49 77 0.0 3.5 0.00 0.00 0.00 94 1019.5
20260509213606 48 45 0.0 1.7 0.00 0.00 0.00 94 1019.9
20260509212703 49 52 0.0 1.7 0.00 0.00 0.00 94 1019.8
20260509211806 49 45 0.0 1.7 0.00 0.00 0.00 93 1020.0
20260509210906 49 100 0.0 0.9 0.00 0.00 0.00 93 1019.8
20260509210005 49 57 0.0 5.2 0.00 0.00 0.00 93 1019.8
20260509205405 49 43 0.9 5.2 0.00 0.00 0.00 93 1020.0
20260509204506 50 53 0.9 5.2 0.00 0.00 0.00 92 1019.9
20260509203606 50 54 0.9 5.2 0.00 0.00 0.00 91 1019.9
20260509202705 50 56 0.9 3.5 0.00 0.00 0.00 90 1019.5
20260509201805 50 69 0.9 3.5 0.00 0.00 0.00 90 1019.8
20260509200905 50 357 0.0 1.7 0.00 0.00 0.00 87 1019.7
20260509200005 49 56 0.0 1.7 0.00 0.00 0.00 84 1019.5
20260509195405 50 70 0.0 1.7 0.00 0.00 0.00 85 1019.5
20260509194505 50 53 0.0 2.6 0.00 0.00 0.00 86 1019.2
20260509193605 50 67 0.0 1.7 0.00 0.00 0.00 87 1019.2
20260509192705 50 73 0.0 1.7 0.00 0.00 0.00 86 1019.1
20260509191805 51 32 0.0 1.7 0.00 0.00 0.00 86 1019.1
20260509190906 51 97 0.0 2.6 0.00 0.00 0.00 85 1019.0
20260509190007 52 87 0.0 1.7 0.00 0.00 0.00 85 1019.0
20260509185405 53 101 0.0 1.7 0.00 0.00 0.00 83 1018.9
20260509184505 54 63 0.0 2.6 0.00 0.00 0.00 80 1018.9
20260509183609 55 58 0.0 2.6 0.00 0.00 0.00 78 1018.8
20260509182705 56 44 0.0 1.7 0.00 0.00 0.00 75 1018.8
20260509181805 57 64 0.0 2.6 0.00 0.00 0.00 72 1018.6
20260509180908 58 57 0.0 0.9 0.00 0.00 0.00 68 1018.4
20260509180005 58 64 0.0 1.7 0.00 0.00 0.00 61 1018.5
20260509175405 58 83 0.0 0.9 0.00 0.00 0.00 56 1018.4
20260509174505 59 59 0.0 2.6 0.00 0.00 0.00 56 1018.2
20260509173605 59 59 0.0 2.6 0.00 0.00 0.00 56 1018.2
20260509172705 61 50 0.0 3.5 0.00 0.00 0.00 57 1018.5
20260509171805 61 75 0.0 1.7 0.00 0.00 0.00 57 1018.3
20260509170908 61 75 0.0 1.7 0.00 0.00 0.00 59 1018.1
20260509170009 59 64 0.0 2.6 0.00 0.00 0.00 58 1018.4
20260509165405 59 59 0.0 2.6 0.00 0.00 0.00 57 1018.4
20260509164505 59 55 0.0 1.7 0.00 0.00 0.00 51 1018.3